GW0416 Weather Reports


time (UTC)temp
F
wind
direction
speed
knots
gust
knots
rain 1hr
in
rain 24hr
in
rain mn
in
humidity
%
barometer
mb
20260506044529 34 336 1.7 3.5 0.00 0.00 0.00 47 1019.3
20260506043033 35 351 1.7 3.5 0.00 0.00 0.00 45 1019.4
20260506041530 36 355 2.6 3.5 0.00 0.00 0.00 45 1019.5
20260506040028 35 344 1.7 4.3 0.00 0.00 0.00 44 1019.6
20260506034528 38 34 4.3 5.2 0.00 0.00 0.00 42 1019.4
20260506033034 38 35 4.3 5.2 0.00 0.00 0.00 42 1019.3
20260506031533 38 36 5.2 7.8 0.00 0.00 0.00 41 1019.3
20260506030033 39 32 6.1 7.8 0.00 0.00 0.00 41 1019.2
20260506024528 39 26 5.2 9.6 0.00 0.00 0.00 40 1019.2
20260506023028 41 19 7.8 10.4 0.00 0.00 0.00 38 1019.1
20260506021532 43 22 10.4 13.9 0.00 0.00 0.00 36 1019.0
20260506020105 43 5 10.4 18.2 0.00 0.00 0.00 36 1019.0
20260506014531 44 13 11.3 19.1 0.00 0.00 0.00 36 1019.0
20260506013031 44 346 9.6 20.9 0.00 0.00 0.00 34 1018.8
20260506011530 45 9 12.2 19.1 0.00 0.00 0.00 34 1018.7
20260506010031 45 15 11.3 20.9 0.00 0.00 0.00 35 1018.7
20260506004526 46 19 14.8 22.6 0.00 0.00 0.00 35 1018.7
20260506003030 46 344 12.2 18.2 0.00 0.00 0.00 34 1018.7
20260506001533 46 33 13.9 22.6 0.00 0.00 0.00 34 1018.7
20260506000050 46 346 11.3 21.7 0.00 0.00 0.00 35 1018.6
20260505234534 47 18 13.0 23.5 0.00 0.00 0.00 35 1018.7
20260505233030 47 5 14.8 24.3 0.00 0.00 0.00 34 1018.7
20260505231530 46 334 16.5 21.7 0.00 0.00 0.00 34 1018.6
20260505230041 46 335 15.6 23.5 0.00 0.00 0.00 33 1018.6
20260505224528 47 15 20.0 26.1 0.00 0.00 0.00 34 1018.7
20260505223037 47 355 15.6 24.3 0.00 0.00 0.00 33 1018.6
20260505221530 47 13 17.4 26.1 0.00 0.00 0.00 35 1018.5
20260505220028 45 352 19.1 26.1 0.00 0.00 0.00 36 1018.7
20260505214532 46 5 16.5 29.5 0.00 0.00 0.00 34 1018.7
20260505213030 46 5 16.5 23.5 0.00 0.00 0.00 36 1018.8
20260505211541 46 322 17.4 23.5 0.00 0.00 0.00 37 1019.0
20260505210033 46 5 12.2 27.8 0.00 0.00 0.00 38 1019.0
20260505204534 45 344 18.2 26.9 0.00 0.00 0.00 37 1019.0
20260505203032 46 355 15.6 28.7 0.00 0.00 0.00 38 1019.0
20260505201533 46 349 16.5 24.3 0.00 0.00 0.00 38 1019.1
20260505200030 45 340 17.4 27.8 0.00 0.00 0.00 40 1019.0
20260505194532 44 335 15.6 26.1 0.00 0.00 0.00 40 1019.1
20260505193032 45 344 17.4 24.3 0.00 0.00 0.00 38 1019.1
20260505191535 45 5 17.4 26.9 0.00 0.00 0.00 39 1019.2
20260505190029 44 350 20.0 29.5 0.00 0.00 0.00 40 1019.1
20260505184539 44 14 15.6 27.8 0.00 0.00 0.00 42 1019.0
20260505183031 43 317 17.4 25.2 0.00 0.00 0.00 44 1019.3
20260505181537 44 309 13.9 24.3 0.00 0.00 0.00 44 1019.1
20260505180033 43 341 17.4 25.2 0.00 0.00 0.00 44 1019.1
20260505174537 43 344 15.6 23.5 0.00 0.00 0.00 43 1019.1
20260505173031 42 326 13.0 20.9 0.00 0.00 0.00 47 1019.2
20260505171538 41 348 13.0 21.7 0.00 0.00 0.00 46 1019.4
20260505170032 41 319 13.9 19.1 0.00 0.00 0.00 50 1019.5
20260505164533 40 31 15.6 21.7 0.00 0.00 0.00 51 1019.6
20260505163032 40 26 12.2 18.2 0.00 0.00 0.00 52 1019.6
20260505161532 39 332 8.7 13.9 0.00 0.00 0.00 55 1019.7
20260505153039 38 338 10.4 15.6 0.00 0.00 0.00 58 1019.7
20260505151532 38 23 11.3 17.4 0.00 0.00 0.00 58 1019.9
20260505124530 33 346 8.7 10.4 0.00 0.00 0.00 69 1019.0
20260505123045 33 351 8.7 12.2 0.00 0.00 0.00 69 1018.7
20260505121532 32 336 7.0 11.3 0.00 0.00 0.00 69 1018.8
20260505120039 32 347 9.6 13.0 0.00 0.00 0.00 68 1018.7
20260505114532 32 344 9.6 12.2 0.00 0.00 0.00 67 1018.5
20260505113032 32 5 8.7 12.2 0.00 0.00 0.00 64 1018.5
20260505111535 32 5 8.7 11.3 0.00 0.00 0.00 64 1018.3
20260505101532 34 5 7.8 10.4 0.00 0.00 0.00 62 1018.4
20260505100034 35 5 8.7 12.2 0.00 0.00 0.00 60 1018.3
20260505094532 35 5 8.7 11.3 0.00 0.00 0.00 61 1018.2
20260505093031 35 360 7.8 9.6 0.00 0.00 0.00 60 1018.1
20260505091530 35 5 6.1 7.8 0.00 0.00 0.00 59 1018.1
20260505090030 35 13 5.2 7.8 0.00 0.00 0.00 60 1018.2
20260505084536 35 5 6.1 7.8 0.00 0.00 0.00 59 1018.0
20260505083031 36 355 6.1 7.8 0.00 0.00 0.00 58 1018.1
20260505081531 37 342 6.1 8.7 0.00 0.00 0.00 57 1018.1
20260505080031 37 344 3.5 5.2 0.00 0.00 0.00 57 1018.0
20260505074534 37 313 2.6 4.3 0.00 0.00 0.00 57 1017.9
20260505073032 37 311 2.6 4.3 0.00 0.00 0.00 55 1018.0
20260505071530 38 5 2.6 4.3 0.00 0.00 0.00 55 1017.8
20260505070032 37 0 0.0 2.6 0.00 0.00 0.00 55 1017.8
20260505064533 37 343 1.7 5.2 0.00 0.00 0.00 55 1018.1
20260505063032 37 309 2.6 5.2 0.00 0.00 0.00 55 1017.9
20260505061530 37 279 3.5 7.0 0.00 0.00 0.00 55 1017.6